Location: Akkrum
(53.0502°N, 5.8309°E)
Time: 09:05:28
(UTC+00:00)

Daily predictions for brighter satellites

Satellite Brightness Start Highest point End
(mag) Time Altitude Azimuth Time Altitude Azimuth Time Altitude Azimuth
Cosmos 1606 2.8 20:27:14 10° NNW 20:30:47 70° W 20:34:18 10° S
Cosmos 2341 Rocket 4.3 20:26:11 10° SSE 20:32:16 53° E 20:38:26 10° NNE
Cosmos 2298 Rocket 4.3 20:27:19 10° S 20:32:28 52° ESE 20:37:38 10° NNE
NOSS 3-1 (C) 3.7 20:28:07 10° S 20:32:35 35° ESE 20:37:52 10° NE
Cosmos 1544 Rocket 3.5 20:30:23 10° N 20:34:44 85° E 20:39:02 10° SSE
Cosmos 1943 Rocket 3.4 20:31:01 10° SSE 20:35:13 22° ESE 20:39:25 10° NE
Cosmos 2154 Rocket 4.5 20:31:39 10° SSW 20:37:58 69° WNW 20:44:20 10° N
ATLAS 5 CENTAUR R/B 3.4 20:36:37 10° W 20:39:46 29° NNW 20:43:23 10° NE
NOSS 2-3 (E) 3.8 20:36:13 10° WSW 20:39:55 66° NW 20:44:19 10° NE
NOSS 2-2 (D) 3.6 20:37:44 10° WSW 20:40:50 55° NW 20:44:02 10° NE
Okean-O 4.0 20:37:43 10° SSW 20:41:47 37° W 20:45:55 10° NNW
CZ-4C R/B 3.1 20:42:37 10° NNE 20:46:16 87° WNW 20:49:46 10° SSW
Cosmos 1269 Rocket 4.3 20:43:06 10° NNW 20:48:24 62° ENE 20:53:39 10° SE
MetOp-A 4.3 20:46:45 10° SE 20:50:51 40° ENE 20:54:42 10° N
USA 305 2.4 20:47:06 10° WNW 20:50:55 82° SSW 20:54:17 10° ESE
CENTAUR R/B 4.2 20:44:16 10° NW 20:51:08 42° NNE 20:59:17 10° E
Cosmos 1125 Rocket 3.9 20:46:32 10° SSW 20:51:50 72° WNW 20:57:09 10° NNE
CZ-4C R/B 3.3 20:46:52 10° NW 20:53:19 60° NE 21:01:24 10° ESE
SPOT 5 4.2 20:50:14 10° SSW 20:55:01 41° W 21:00:00 10° NNW
Cosmos 2084 Rocket 3.4 20:52:27 10° NW 20:56:26 64° SW 21:00:04 11° SE
MOS 1 Rocket 3.5 20:52:34 10° S 20:57:01 62° WSW 21:01:20 10° NNW
COSMOS 2406 3.6 20:51:39 10° NNW 20:57:17 59° NE 21:02:48 10° SE
USA 290 3.2 20:55:30 10° SSE 20:58:14 27° ESE 21:00:59 10° NE
USA 307 2.6 20:54:32 10° WNW 20:58:27 86° SSW 21:02:11 10° ESE
Cosmos 44 3.4 20:54:06 10° SW 20:59:21 90° SE 21:04:21 10° NE
NOSS 2-3 (C) 4.4 20:56:53 10° WSW 21:00:32 50° NNW 21:04:55 10° NE
Cosmos 1975 Rocket 4.3 20:58:20 10° SW 21:02:37 44° WNW 21:06:55 10° N
Terra 2.4 20:58:59 10° S 21:03:37 56° W 21:08:18 10° NNW
ISS -3.3 21:02:06 10° W 21:05:17 45° SSW 21:08:05 13° SE
Cosmos 1140 Rocket 4.2 21:00:38 10° NNW 21:05:33 44° NE 21:10:17 11° SE
Cosmos 1606 Rocket 3.8 21:03:08 10° N 21:07:24 55° ENE 21:11:11 13° SSE
Cosmos 1726 Rocket 4.2 21:03:15 10° N 21:07:24 42° ENE 21:11:00 13° SE
BREEZE-M DEB (TANK) 3.1 21:06:03 10° WSW 21:08:22 45° S 21:12:29 10° ESE
Cosmos 2228 3.5 21:04:30 10° NNW 21:08:36 57° W 21:12:41 10° S
Cosmos 2150 Rocket 4.2 21:05:26 10° SSW 21:10:53 86° WNW 21:16:24 10° NNE
Cosmos 1437 Rocket 2.7 21:08:30 10° SSW 21:12:07 75° WNW 21:15:48 10° N
NOSS 3-1 (A) 3.7 21:08:54 10° S 21:13:21 33° ESE 21:18:34 10° ENE
Cosmos 2366 rocket 4.0 21:07:37 10° S 21:13:45 81° E 21:19:56 10° NNE
Landsat 4 3.5 21:11:42 12° SSE 21:14:53 80° WSW 21:18:20 10° NNW
ERS-1 Rocket 4.2 21:14:31 10° SSW 21:19:11 38° W 21:23:52 10° NNW
SL-8 Rocket 4.1 21:14:15 10° SSW 21:20:33 83° W 21:26:56 10° N
NOSS 8 (H) 4.2 21:21:58 10° NW 21:24:56 89° NE 21:27:40 16° SE
SPOT 3 Rocket 4.2 21:22:49 10° S 21:27:53 51° W 21:33:00 10° NNW
Cosmos 1833 Rocket 4.4 21:27:11 10° NW 21:31:46 26° WSW 21:36:19 10° SSW
NOSS 8 (E) 4.5 21:30:26 10° NW 21:33:25 59° SW 21:35:49 18° SSE
Cosmos 1536 Rocket 3.8 21:29:37 10° SSW 21:33:56 70° WNW 21:38:15 10° N
Gbstr 26 Del rocket 3.4 21:30:32 10° W 21:35:06 66° SSW 21:40:46 10° ESE
Cosmos 2251 Rocket 4.2 21:30:49 10° NNW 21:35:59 46° NE 21:40:25 14° SE
Cosmos 1812 2.6 21:34:34 10° N 21:38:07 66° ENE 21:40:30 19° SSE
Cosmos 2123 Rocket 4.4 21:34:25 10° N 21:40:36 54° ENE 21:45:35 16° SSE
Landsat 5 3.5 21:39:02 10° NNE 21:43:27 77° ESE 21:47:30 12° S
H-2A R/B 3.8 21:40:49 12° ESE 21:43:30 25° ENE 21:46:38 10° N
Cosmos 2058 Rocket 3.3 21:42:43 10° N 21:47:01 56° ENE 21:49:58 19° SSE
ATLAS 3B R/B 3.0 21:42:54 10° SSW 21:49:54 56° SE 21:57:23 10° NE
Iridium 921 4.4 21:50:22 21° SSE 21:52:27 64° E 21:55:49 10° N
Cosmos 2082 Rocket 2.7 21:51:14 10° NW 21:56:40 50° WSW 22:00:54 16° S
Cosmos 1461 4.2 21:59:59 10° NNW 22:03:29 33° NNE 22:06:58 10° E
Cosmos 2369 Rocket 3.5 22:02:12 17° SE 22:04:36 22° ESE 22:08:49 10° NE
Cosmos 2278 Rocket 2.5 22:00:01 10° SW 22:05:40 69° NW 22:11:21 10° NNE
Cosmos 1933 4.5 22:02:42 10° N 22:06:16 32° ENE 22:08:31 18° ESE
Lacrosse 5 2.6 22:01:25 10° WNW 22:06:25 56° N 22:11:25 10° E
Cosmos 2058 3.0 22:04:28 22° S 22:06:58 58° E 22:11:00 10° NNE
ULPM Upper Stage 4.0 22:03:29 10° WNW 22:07:17 29° SW 22:09:35 18° S
SeaSat 1 3.3 22:04:43 12° ESE 22:08:58 45° NE 22:13:39 10° NNW
Cosmos 1934 Rocket 4.2 22:04:42 18° SSE 22:09:17 57° E 22:15:19 10° NNE
Cosmos-2242 3.6 22:05:14 10° N 22:09:17 43° ENE 22:11:43 21° SE
Cosmos 1782 3.2 22:09:14 10° N 22:12:57 47° ENE 22:14:56 24° SE
COSMOS 2455 3.6 22:07:06 10° NW 22:13:00 50° NE 22:18:51 10° ESE
Cosmos 1271 Rocket 3.7 22:11:44 23° SE 22:13:13 31° E 22:16:36 10° NNE
ARIANE 5 R/B 2.6 22:11:08 22° SSE 22:14:01 84° WSW 22:18:33 10° NNW
Geosat 4.0 22:11:11 10° NNE 22:16:14 86° WNW 22:21:16 10° SW
SJ 16-02 4.1 22:15:28 10° NNE 22:16:45 11° NE 22:18:01 10° NE
Cosmos 1943 Rocket 2.3 22:12:42 10° SW 22:18:21 80° WNW 22:24:00 10° NNE
USA 305 3.5 22:19:44 10° W 22:22:41 24° SW 22:23:12 23° SSW
NOSS 3-1 (C) 3.8 22:17:51 10° WSW 22:22:59 61° NW 22:29:22 10° NE
ATLAS 5 CENTAUR R/B 4.2 22:21:40 10° NW 22:24:41 20° N 22:28:07 10° NE
Cosmos 1238 Rocket 2.7 22:24:02 10° N 22:27:40 88° W 22:29:54 26° S
Cosmos 1758 Rocket 4.4 22:26:47 23° SE 22:28:44 34° E 22:32:39 10° NNE
ALOS 2 3.0 22:26:30 22° SE 22:29:07 55° ENE 22:33:25 10° N
Cosmos 1626 Rocket 3.9 22:28:20 26° SSE 22:30:29 50° E 22:34:40 10° NNE
USA 307 3.4 22:27:57 10° W 22:31:24 32° SW 22:32:13 28° S
Cosmos 1892 Rocket 4.0 22:28:31 15° SSW 22:32:06 61° WNW 22:36:30 10° N
USA 290 4.4 22:29:54 10° WSW 22:32:36 25° NW 22:35:19 10° N
SL-27 R/B 3.7 22:31:09 10° N 22:33:34 25° ENE 22:34:49 18° E
Cosmos 407 Rocket 3.7 22:29:34 10° NNW 22:34:42 64° WSW 22:37:51 24° S
Cosmos 1666 4.1 22:35:30 18° ESE 22:36:22 20° E 22:38:56 10° NE
Cosmos 482 Debris 4.2 22:32:48 10° W 22:37:41 78° S 22:41:14 10° E
PSLV R/B 3.8 22:34:40 10° NNE 22:38:41 76° ESE 22:40:49 27° S
Cosmos 2285 Rocket 4.1 22:32:19 10° NNW 22:38:48 82° ENE 22:43:16 21° SSE
Okean 1-7 Rocket 4.3 22:38:56 25° SE 22:40:55 39° E 22:45:01 10° NNE
COSMOS 2406 4.4 22:36:22 10° NW 22:41:18 31° WSW 22:44:50 16° SSW
ISS -1.6 22:39:31 10° WSW 22:40:58 14° SW 22:40:58 14° SW
CZ-4C R/B 3.2 22:35:11 10° NW 22:42:02 56° SW 22:47:43 21° SSE
CENTAUR R/B 3.4 22:35:13 10° NW 22:43:04 73° NE 22:52:12 10° ESE
CZ-2C R/B 4.0 22:39:18 10° NNE 22:43:56 71° WNW 22:47:29 17° SSW
Cosmos 1378 2.6 22:42:09 10° N 22:45:23 81° E 22:46:28 39° SSE
Lacrosse 5 rocket 2.1 22:45:25 28° SE 22:45:26 28° SE 22:48:50 10° ENE
Cosmos 1500 4.0 22:45:16 27° ESE 22:46:10 31° E 22:49:13 10° NNE
Cosmos 1140 Rocket 4.5 22:42:34 10° NW 22:47:13 35° WSW 22:50:14 19° SSW
Cosmos 1535 Rocket 4.4 22:46:29 22° S 22:50:38 79° E 22:56:51 10° NNE
Cosmos 2221 3.6 22:46:46 10° N 22:50:42 35° ENE 22:53:05 20° SE
Cosmos 1544 3.9 22:53:06 16° W 22:53:27 17° WNW 22:54:53 10° NNW
Spot 4 4.0 22:53:26 26° S 22:56:10 67° WSW 23:01:02 10° NNW
Cosmos 1605 Rocket 4.0 22:52:37 23° S 22:56:34 75° E 23:02:45 10° NNE
USA 81 4.0 22:53:03 10° N 22:58:22 87° W 23:01:26 26° S
Iridium 4 Rocket 4.3 22:56:36 10° N 23:02:17 51° E 23:05:55 22° SSE
NOSS 3-1 (A) 3.7 22:58:34 10° WSW 23:03:44 64° NW 23:10:07 10° NE
Cosmos 1656 Rocket 3.6 23:07:12 21° SSW 23:11:00 80° ESE 23:16:36 10° NNE
Cosmos 1954 Rocket 4.0 23:06:19 10° NNW 23:11:29 74° WSW 23:14:17 27° SSE
Lacrosse 4 Rocket 1.8 23:11:04 33° SSE 23:12:18 43° ESE 23:16:14 10° NE
Exosat Rocket 3.6 23:08:07 10° NNW 23:13:37 71° WSW 23:16:19 27° SSE
Spot 2 4.1 23:14:06 30° S 23:16:10 70° WSW 23:20:21 10° NNW
Cosmos 1447 Rocket 4.5 23:11:00 10° NNW 23:17:16 81° W 23:21:05 25° S
Cosmos 1624 Rocket 4.1 23:15:24 27° S 23:18:08 61° ESE 23:23:20 10° NNE
H-2A R/B 3.1 23:16:46 26° SSW 23:18:17 38° W 23:21:52 10° NNW
Cosmos 1833 4.2 23:13:18 10° NNW 23:19:01 82° WSW 23:22:34 24° SSE
H-2A R/B 3.1 23:17:32 10° NE 23:21:09 30° E 23:22:35 24° SE
Cosmos 1420 Rocket 4.0 23:18:05 25° SSW 23:21:15 78° ESE 23:26:32 10° NNE
Gbstr 26 Del rocket 4.4 23:16:57 10° W 23:21:27 31° SSW 23:23:14 26° S
USA 281 3.2 23:17:01 20° SSE 23:21:48 88° ENE 23:28:26 10° NNW
Cosmos 2297 3.7 23:20:34 19° SSW 23:24:46 89° NW 23:30:31 10° NNE
Cosmos 2173 Rocket 4.5 23:21:52 23° SSE 23:25:27 48° E 23:31:18 10° NNE
Meteor 2-3 Rocket 3.8 23:22:06 22° SSW 23:25:50 76° WNW 23:31:31 10° N
NOSS 3-2 (A) 4.1 23:22:25 10° NW 23:29:30 82° NE 23:38:02 10° SE
Cosmos 2346 Rocket 4.5 23:26:11 10° NNW 23:32:22 79° W 23:36:07 25° S
USA 229 DEB 3.5 23:26:34 12° SW 23:32:26 86° SE 23:39:25 10° NE
USA 229 3.5 23:26:45 12° SW 23:32:33 85° SE 23:39:33 10° NE
Cosmos 2056 Rocket 3.4 23:30:04 26° SSW 23:33:06 79° ESE 23:38:19 10° NNE
Cosmos 1825 Rocket 3.6 23:34:45 32° S 23:36:38 66° E 23:40:55 10° NNE
Meteor 2-6 Rocket 4.4 23:34:45 10° NNW 23:40:45 86° ENE 23:44:27 25° SSE
ATLAS 3B R/B 3.5 23:33:31 10° WSW 23:40:48 59° NNW 23:48:31 10° NE
Cosmos 1812 Rocket 4.4 23:36:50 10° NNW 23:41:02 41° W 23:43:04 25° SW
SL-8 R/B 3.9 23:36:51 10° WSW 23:41:25 45° S 23:46:00 10° E
Cosmos 1461 3.0 23:38:02 10° NW 23:41:43 47° SW 23:42:42 37° S
PSLV R/B 3.6 23:37:57 10° NNE 23:42:20 88° WNW 23:44:35 30° SSW
Gblst 52 Del rocket 4.1 23:39:37 10° WSW 23:45:04 58° SSE 23:50:29 10° E
SeaSat 1 3.1 23:44:25 27° SSW 23:46:29 40° WSW 23:51:07 10° NW
Cosmos 1602 Rocket 4.1 23:44:40 24° SW 23:47:00 52° WNW 23:51:15 10° N
Cosmos 2369 Rocket 2.2 23:43:56 19° SW 23:48:00 79° WNW 23:53:41 10° NNE
Cosmos 1271 Rocket 4.3 23:46:10 15° WSW 23:48:33 27° WNW 23:51:51 10° N
Cosmos 676 Rocket 4.5 23:44:17 10° NW 23:49:13 46° WSW 23:51:36 27° SSW
Lacrosse 5 1.8 23:44:36 10° WNW 23:49:42 84° SSW 23:54:47 10° ESE
Cosmos 2227 Rocket 4.3 23:45:29 10° NNW 23:50:10 26° NE 23:54:50 10° E
Meteor 2-16 Rocket 4.4 23:45:28 10° N 23:51:39 84° E 23:55:33 24° SSE
Cosmos 1953 Rocket 3.8 23:51:42 30° SSE 23:53:45 62° E 23:58:11 10° NNE
